Sacramento, CA
on Monday, December 10, 2012

Monday
Previous Day Next Day
Daily Summary
 ActualAverageRecord
Temperature
Mean Temperature - -  
Max Temperature 62 °F 55 °F 68 °F (1943)
Min Temperature 38 °F 39 °F 23 °F (1972)
Degree Days
Heating Degree Days 15    
Cooling Degree Days 0    
Moisture
Dew Point 41 °F   
Average Humidity 88    
Maximum Humidity 100    
Minimum Humidity 54    
Precipitation
Precipitation 0.00 in 0.10 in 0.93 in (1996)
Month to date precipitation 2.41 0.95  
Year to date precipitation 17.41 16.22  
Since 1 July precipitation 7.55 4.32  
Wind
Wind Speed 0 mph   
Max Wind Speed 7 mph   
Max Gust Speed 15 mph   
Visibility 3 miles   
Events Fog   

Key: T is trace of precipitation, MM is missing value
Source: NWS Daily Summary
Time(PST)TemperatureDew PointHumidity Pressure Visibility Wind DirectionWind SpeedGust SpeedPrecipitationEvents Conditions
12:18 AM 42.8 °F 39.2 °F 87% 30.21 in 0.2 miles Calm Calm - N/A Fog Fog
12:49 AM 41.0 °F 39.2 °F 93% 30.22 in 1.0 miles Calm Calm - N/A   Mist
12:53 AM 41.0 °F 39.0 °F 93% 30.22 in 2.0 miles Calm Calm - N/A   Partly Cloudy
1:07 AM 42.8 °F 39.2 °F 87% 30.22 in 1.5 miles Calm Calm - N/A   Clear
1:26 AM 41.0 °F 39.2 °F 93% 30.22 in 0.5 miles Calm Calm - N/A Fog Fog
1:42 AM 41.0 °F 37.4 °F 87% 30.22 in 1.5 miles Calm Calm - N/A   Clear
1:49 AM 39.2 °F 39.2 °F 100% 30.22 in 3.0 miles Calm Calm - N/A   Clear
1:53 AM 39.9 °F 37.9 °F 93% 30.22 in 3.0 miles Calm Calm - N/A   Clear
2:05 AM 41.0 °F 39.2 °F 93% 30.22 in 1.8 miles Calm Calm - N/A   Clear
2:28 AM 41.0 °F 39.2 °F 93% 30.23 in 0.2 miles Calm Calm - N/A Fog Fog
2:39 AM 39.2 °F 37.4 °F 93% 30.23 in 0.2 miles Calm Calm - N/A Fog Fog
2:49 AM 41.0 °F 39.2 °F 93% 30.23 in 1.0 miles Calm Calm - N/A   Mist
2:53 AM 42.1 °F 39.9 °F 92% 30.23 in 1.2 miles Calm Calm - N/A   Partly Cloudy
3:00 AM 41.0 °F 39.2 °F 93% 30.23 in 3.0 miles Calm Calm - N/A   Partly Cloudy
3:30 AM 41.0 °F 39.2 °F 93% 30.23 in 1.8 miles Calm Calm - N/A   Clear
3:53 AM 39.2 °F 37.4 °F 93% 30.23 in 1.5 miles Calm Calm - N/A   Clear
4:28 AM 39.2 °F 37.4 °F 93% 30.23 in 3.0 miles Calm Calm - N/A   Clear
4:53 AM 41.0 °F 37.9 °F 89% 30.23 in 4.0 miles Calm Calm - N/A   Clear
5:16 AM 39.2 °F 37.4 °F 93% 30.23 in 1.8 miles Calm Calm - N/A   Clear
5:39 AM 39.2 °F 37.4 °F 93% 30.23 in 0.5 miles Calm Calm - N/A Fog Fog
5:53 AM 39.0 °F 37.0 °F 93% 30.23 in 0.8 miles Calm Calm - N/A   Clear
5:58 AM 39.2 °F 37.4 °F 93% 30.23 in 5.0 miles Calm Calm - N/A   Clear
6:53 AM 37.9 °F 36.0 °F 93% 30.24 in 5.0 miles Calm Calm - N/A   Clear
7:19 AM 39.2 °F 35.6 °F 87% 30.25 in 1.8 miles Calm Calm - N/A   Clear
7:29 AM 39.2 °F 37.4 °F 93% 30.25 in 4.0 miles Calm Calm - N/A   Clear
7:53 AM 39.0 °F 37.0 °F 93% 30.25 in 4.0 miles Calm Calm - N/A   Clear
7:57 AM 39.2 °F 37.4 °F 93% 30.25 in 1.8 miles Calm Calm - N/A   Clear
8:20 AM 42.8 °F 39.2 °F 87% 30.26 in 2.0 miles Calm Calm - N/A   Clear
8:33 AM 44.6 °F 42.8 °F 93% 30.26 in 3.0 miles Calm Calm - N/A   Clear
8:53 AM 46.9 °F 44.1 °F 90% 30.26 in 6.0 miles Calm Calm - N/A   Clear
9:53 AM 51.1 °F 46.0 °F 83% 30.27 in 8.0 miles Calm Calm - N/A   Clear
10:53 AM 55.0 °F 46.9 °F 74% 30.25 in 6.0 miles Calm Calm - N/A   Haze
11:53 AM 57.9 °F 46.9 °F 67% 30.22 in 7.0 miles West 4.6 mph - N/A   Clear
12:53 PM 59.0 °F 46.0 °F 62% 30.19 in 9.0 miles Calm Calm - N/A   Clear
1:53 PM 59.0 °F 45.0 °F 60% 30.17 in 9.0 miles Calm Calm - N/A   Clear
2:53 PM 61.0 °F 44.1 °F 54% 30.15 in 10.0 miles NNW 3.5 mph - N/A   Clear
3:53 PM 61.0 °F 44.1 °F 54% 30.14 in 10.0 miles Calm Calm - N/A   Clear
4:53 PM 54.0 °F 44.1 °F 69% 30.14 in 10.0 miles Calm Calm - N/A   Clear
5:53 PM 51.1 °F 43.0 °F 74% 30.14 in 10.0 miles South 3.5 mph - N/A   Clear
6:53 PM 48.0 °F 44.1 °F 86% 30.13 in 6.0 miles Calm Calm - N/A   Clear
7:53 PM 46.9 °F 44.1 °F 90% 30.14 in 4.0 miles Calm Calm - N/A   Clear
8:17 PM 44.6 °F 42.8 °F 93% 30.13 in 2.5 miles Calm Calm - N/A   Clear
8:35 PM 44.6 °F 42.8 °F 93% 30.14 in 3.0 miles Calm Calm - N/A   Clear
8:51 PM 44.6 °F 42.8 °F 93% 30.14 in 1.8 miles Calm Calm - N/A   Clear
8:53 PM 45.0 °F 42.1 °F 90% 30.14 in 1.2 miles Calm Calm - N/A   Clear
9:07 PM 44.6 °F 42.8 °F 93% 30.14 in 3.0 miles Calm Calm - N/A   Clear
9:42 PM 44.6 °F 41.0 °F 87% 30.14 in 2.5 miles Calm Calm - N/A   Clear
9:50 PM 44.6 °F 41.0 °F 87% 30.14 in 1.0 miles Calm Calm - N/A   Clear
9:53 PM 44.1 °F 41.0 °F 89% 30.14 in 0.5 miles Calm Calm - N/A Fog Fog
10:09 PM 44.6 °F 42.8 °F 93% 30.14 in 1.8 miles East 3.5 mph - N/A   Clear
10:19 PM 44.6 °F 42.8 °F 93% 30.13 in 2.5 miles Calm Calm - N/A   Clear
10:30 PM 42.8 °F 41.0 °F 93% 30.13 in 1.0 miles ESE 3.5 mph - N/A   Clear
10:53 PM 44.1 °F 42.1 °F 93% 30.13 in 2.0 miles Calm Calm - N/A   Clear
11:08 PM 44.6 °F 42.8 °F 93% 30.13 in 0.8 miles ESE 3.5 mph - N/A   Mist
11:17 PM 42.8 °F 41.0 °F 93% 30.13 in 0.2 miles Calm Calm - N/A Fog Fog
11:28 PM 44.6 °F 42.8 °F 93% 30.13 in 0.2 miles Calm Calm - N/A Fog Fog
11:53 PM 42.1 °F 39.9 °F 92% 30.12 in 0.2 miles Calm Calm - N/A Fog Fog

Astronomy

Sunrise: 07:13 AM (PST) Moon Rise: 04:04 AM (PST) 12 / 10
Sunset: 04:45 PM (PST) Moon Set: 02:37 PM (PST) 12 / 10
Moon Phase
Dec. 10 Dec. 13 Dec. 20 Dec. 28 Jan. 04


Powered by Weather Underground, Inc.